User: anonymous   Login
Location: Caltech
(34.1382°N, 118.1253°W)
Time: 11:53:23
(UTC-07:00)
Language:

UOSAT-12 - Orbit

View from above orbital plane
View from above orbital plane
View from above satellite
View from above satellite

Ground track
Ground track

The orbit data is extracted from the following two-line orbital elements,

1 25693U 99021A   16275.17764819  .00000053  00000-0  25264-4 0  9991
2 25693  64.5561 203.9126 0008109 323.7863  36.2692 14.80682772941813
Epoch (UTC): 01 October 2016 04:15:48
Eccentricity: 0.0008109
inclination: 64.5561°
perigee height: 621 km
apogee height: 633 km
right ascension of ascending node: 203.9126°
argument of perigee: 323.7863°
revolutions per day: 14.80682772
mean anomaly at epoch: 36.2692°
orbit number at epoch: 94181

The dashed part of the orbit path shows where the satellite is in the earth's shadow,  

DLR